QPF
0.00 0.00 0.00 0.00 0.00 0.00 0.00 0.00 0.01 0.01 0.00 0.01 0.01 0.02 0.03 0.03 0.04 0.03 0.03 0.03 0.03 0.02 0.01 0.01 0.01 0.02 0.03 0.02 0.02 0.03 0.04 0.04 0.03 0.02 0.02 0.03 0.03 0.03 0.03 0.03 0.04 0.03 0.03 0.03
0.00 0.00 0.00 0.00 0.00 0.00 0.00 0.00 0.01 0.01 0.01 0.01 0.02 0.02 0.02 0.02 0.03 0.05 0.04 0.04 0.02 0.02 0.01 0.02 0.01 0.01 0.01 0.01 0.01 0.01 0.02 0.01 0.01 0.01 0.01 0.01 0.01 0.02 0.02 0.01 0.01 0.01 0.02 0.03
0.00 0.00 0.00 0.00 0.00 0.00 0.00 0.00 0.00 0.01 0.02 0.02 0.02 0.02 0.02 0.01 0.03 0.04 0.04 0.04 0.02 0.02 0.01 0.01 0.01 0.01 0.01 0.00 0.00 0.01 0.01 0.01 0.01 0.01 0.01 0.01 0.01 0.01 0.01 0.01 0.01 0.02 0.03 0.03
0.00 0.00 0.00 0.00 0.00 0.00 0.00 0.00 0.00 0.01 0.02 0.02 0.02 0.04 0.02 0.01 0.02 0.02 0.02 0.02 0.02 0.02 0.01 0.01 0.01 0.01 0.01 0.01 0.01 0.01 0.00 0.01 0.01 0.00 0.01 0.01 0.01 0.01 0.01 0.01 0.01 0.01 0.01 0.02
0.00 0.00 0.00 0.00 0.00 0.00 0.00 0.00 0.00 0.01 0.01 0.02 0.01 0.02 0.02 0.01 0.01 0.01 0.01 0.01 0.01 0.00 0.00 0.01 0.01 0.00 0.00 0.00 0.00 0.00 0.00 0.00 0.00 0.00 0.00 0.01 0.01 0.01 0.01 0.00 0.00 0.00 0.00 0.00
0.00 0.00 0.00 0.00 0.00 0.00 0.00 0.00 0.00 0.01 0.01 0.02 0.01 0.01 0.02 0.01 0.01 0.01 0.01 0.00 0.00 0.00 0.00 0.00 0.00 0.00 0.00 0.00 0.00 0.00 0.00 0.00 0.00 0.00 0.00 0.01 0.01 0.00 0.00 0.00 0.00 0.00 0.00 0.00
0.00 0.00 0.00 0.00 0.00 0.00 0.00 0.00 0.01 0.02 0.02 0.02 0.00 0.01 0.01 0.00 0.00 0.00 0.00 0.00 0.00 0.00 0.00 0.00 0.00 0.00 0.00 0.00 0.00 0.00 0.00 0.00 0.00 0.00 0.00 0.00 0.00 0.00 0.00 0.00 0.00 0.00 0.00 0.00
0.00 0.00 0.00 0.00 0.00 0.00 0.00 0.00 0.01 0.01 0.01 0.01 0.00 0.01 0.00 0.00 0.00 0.00 0.00 0.00 0.00 0.00 0.00 0.00 0.00 0.00 0.00 0.00 0.00 0.00 0.00 0.00 0.00 0.00 0.00 0.00 0.00 0.00 0.00 0.00 0.00 0.00 0.00 0.00
0.00 0.00 0.00 0.00 0.00 0.00 0.00 0.00 0.00 0.00 0.00 0.01 0.00 0.00 0.00 0.00 0.00 0.00 0.00 0.00 0.00 0.00 0.00 0.00 0.00 0.00 0.00 0.00 0.00 0.00 0.00 0.00 0.00 0.00 0.00 0.00 0.00 0.00 0.00 0.00 0.00 0.00 0.00 0.00
0.00 0.00 0.00 0.00 0.00 0.00 0.00 0.00 0.00 0.00 0.00 0.00 0.00 0.00 0.00 0.00 0.00 0.00 0.00 0.00 0.00 0.00 0.00 0.00 0.00 0.00 0.00 0.00 0.00 0.00 0.00 0.00 0.00 0.00 0.00 0.00 0.00 0.00 0.00 0.00 0.00 0.00 0.00 0.00
0.00 0.00 0.00 0.00 0.00 0.00 0.00 0.00 0.00 0.00 0.00 0.00 0.00 0.00 0.00 0.00 0.00 0.00 0.00 0.00 0.00 0.00 0.00 0.00 0.00 0.00 0.00 0.00 0.00 0.00 0.00 0.00 0.00 0.00 0.00 0.00 0.00 0.00 0.00 0.00 0.00 0.00 0.00 0.00
0.00 0.00 0.00 0.00 0.00 0.00 0.00 0.00 0.00 0.00 0.00 0.00 0.00 0.00 0.00 0.00 0.00 0.00 0.00 0.00 0.00 0.00 0.00 0.00 0.00 0.00 0.00 0.00 0.00 0.00 0.00 0.00 0.00 0.00 0.00 0.00 0.00 0.00 0.00 0.00 0.00 0.00 0.00 0.00
0.00 0.00 0.00 0.00 0.00 0.00 0.00 0.00 0.00 0.00 0.00 0.00 0.00 0.00 0.00 0.00 0.00 0.00 0.00 0.00 0.00 0.00 0.00 0.00 0.00 0.00 0.00 0.00 0.00 0.00 0.00 0.00 0.00 0.00 0.00 0.00 0.00 0.00 0.00 0.00 0.00 0.00 0.00 0.01
0.00 0.00 0.00 0.00 0.00 0.00 0.00 0.00 0.00 0.00 0.00 0.00 0.00 0.00 0.00 0.00 0.00 0.00 0.00 0.00 0.00 0.00 0.00 0.00 0.00 0.00 0.00 0.00 0.00 0.00 0.00 0.00 0.00 0.00 0.00 0.00 0.00 0.00 0.00 0.00 0.00 0.01 0.01 0.01
0.00 0.00 0.00 0.00 0.00 0.00 0.00 0.00 0.00 0.00 0.00 0.00 0.00 0.00 0.00 0.00 0.00 0.00 0.00 0.00 0.00 0.00 0.00 0.00 0.00 0.00 0.00 0.00 0.00 0.00 0.00 0.00 0.00 0.00 0.00 0.00 0.00 0.00 0.00 0.00 0.01 0.01 0.01 0.01
0.00 0.00 0.00 0.00 0.00 0.00 0.00 0.00 0.00 0.00 0.00 0.00 0.00 0.00 0.00 0.00 0.00 0.00 0.00 0.00 0.00 0.00 0.00 0.00 0.00 0.00 0.00 0.00 0.00 0.00 0.00 0.00 0.00 0.00 0.00 0.00 0.00 0.00 0.00 0.00 0.00 0.00 0.00 0.01
0.00 0.00 0.00 0.00 0.00 0.00 0.00 0.00 0.00 0.00 0.00 0.00 0.00 0.00 0.00 0.00 0.00 0.00 0.00 0.00 0.00 0.00 0.00 0.00 0.00 0.00 0.00 0.00 0.00 0.00 0.00 0.00 0.00 0.00 0.00 0.00 0.00 0.00 0.00 0.00 0.00 0.00 0.01 0.01
0.00 0.00 0.00 0.00 0.00 0.00 0.00 0.00 0.00 0.00 0.00 0.00 0.00 0.00 0.00 0.00 0.00 0.00 0.00 0.00 0.00 0.00 0.00 0.00 0.00 0.00 0.00 0.00 0.00 0.00 0.00 0.00 0.00 0.00 0.00 0.00 0.00 0.00 0.00 0.00 0.00 0.01 0.01 0.01
0.00 0.00 0.00 0.00 0.00 0.00 0.00 0.00 0.00 0.00 0.00 0.00 0.00 0.00 0.00 0.00 0.00 0.00 0.00 0.00 0.00 0.00 0.00 0.00 0.00 0.00 0.00 0.00 0.00 0.00 0.00 0.00 0.00 0.00 0.00 0.00 0.00 0.00 0.00 0.00 0.00 0.00 0.00 0.01
0.00 0.00 0.00 0.00 0.00 0.00 0.00 0.00 0.00 0.00 0.00 0.00 0.00 0.00 0.00 0.00 0.00 0.00 0.00 0.00 0.00 0.00 0.00 0.00 0.00 0.00 0.00 0.00 0.00 0.00 0.00 0.00 0.00 0.00 0.00 0.00 0.00 0.00 0.00 0.00 0.00 0.00 0.00 0.01
0.00 0.00 0.00 0.00 0.00 0.00 0.00 0.00 0.00 0.00 0.00 0.00 0.00 0.00 0.00 0.00 0.00 0.00 0.00 0.00 0.00 0.00 0.00 0.00 0.00 0.00 0.00 0.00 0.00 0.00 0.00 0.00 0.00 0.00 0.00 0.00 0.00 0.00 0.00 0.00 0.00 0.01 0.01 0.01
0.00 0.00 0.00 0.00 0.00 0.00 0.00 0.00 0.00 0.00 0.00 0.00 0.00 0.00 0.00 0.00 0.00 0.00 0.00 0.00 0.00 0.00 0.00 0.00 0.00 0.00 0.00 0.00 0.00 0.00 0.00 0.00 0.00 0.00 0.00 0.00 0.00 0.00 0.00 0.00 0.01 0.01 0.01 0.01
0.00 0.00 0.00 0.00 0.00 0.00 0.00 0.00 0.00 0.00 0.00 0.00 0.00 0.00 0.00 0.00 0.00 0.00 0.00 0.00 0.00 0.00 0.00 0.00 0.00 0.00 0.00 0.00 0.00 0.00 0.00 0.00 0.00 0.00 0.00 0.00 0.00 0.00 0.00 0.00 0.01 0.01 0.01 0.01
0.00 0.00 0.00 0.00 0.00 0.00 0.00 0.00 0.00 0.00 0.00 0.00 0.00 0.00 0.00 0.00 0.00 0.00 0.00 0.00 0.00 0.00 0.00 0.00 0.00 0.00 0.00 0.00 0.00 0.00 0.00 0.00 0.00 0.00 0.00 0.00 0.00 0.00 0.00 0.00 0.00 0.00 0.01 0.00
0.00 0.00 0.00 0.00 0.00 0.00 0.00 0.00 0.00 0.00 0.00 0.00 0.00 0.00 0.00 0.00 0.00 0.00 0.00 0.00 0.00 0.00 0.00 0.00 0.00 0.00 0.00 0.00 0.00 0.00 0.00 0.00 0.00 0.00 0.00 0.00 0.00 0.00 0.00 0.00 0.00 0.00 0.00 0.00
0.00 0.00 0.00 0.00 0.00 0.00 0.00 0.00 0.00 0.00 0.00 0.00 0.00 0.00 0.00 0.00 0.00 0.00 0.00 0.00 0.00 0.00 0.00 0.00 0.00 0.00 0.00 0.00 0.00 0.00 0.00 0.00 0.00 0.00 0.00 0.00 0.00 0.00 0.00 0.00 0.00 0.00 0.00 0.00
MSLP
1013.19 1013.43 1013.55 1013.56 1013.54 1013.54 1013.63 1013.86 1014.23 1014.71 1015.26 1015.80 1016.27 1016.61 1016.78 1016.78 1016.64 1016.40 1016.11 1015.83 1015.60 1015.44 1015.35 1015.33 1015.34 1015.38 1015.41 1015.44 1015.45 1015.45 1015.46 1015.47 1015.49 1015.53 1015.57 1015.60 1015.63 1015.65 1015.66 1015.67 1015.71 1015.76 1015.84 1015.96
1013.19 1013.40 1013.49 1013.49 1013.47 1013.50 1013.65 1013.94 1014.38 1014.92 1015.52 1016.08 1016.55 1016.85 1016.98 1016.92 1016.72 1016.43 1016.12 1015.85 1015.65 1015.54 1015.51 1015.55 1015.63 1015.71 1015.78 1015.81 1015.83 1015.82 1015.81 1015.82 1015.83 1015.86 1015.89 1015.92 1015.93 1015.92 1015.89 1015.86 1015.84 1015.84 1015.88 1015.95
1013.11 1013.30 1013.36 1013.36 1013.36 1013.43 1013.62 1013.97 1014.46 1015.05 1015.66 1016.22 1016.64 1016.89 1016.95 1016.82 1016.56 1016.24 1015.92 1015.67 1015.51 1015.46 1015.51 1015.63 1015.78 1015.92 1016.03 1016.10 1016.14 1016.15 1016.16 1016.17 1016.20 1016.24 1016.28 1016.31 1016.31 1016.28 1016.21 1016.13 1016.05 1015.99 1015.96 1015.97
1012.99 1013.15 1013.20 1013.20 1013.23 1013.34 1013.59 1013.99 1014.52 1015.13 1015.73 1016.25 1016.62 1016.79 1016.77 1016.57 1016.26 1015.90 1015.59 1015.36 1015.25 1015.27 1015.40 1015.60 1015.82 1016.02 1016.19 1016.30 1016.36 1016.40 1016.43 1016.48 1016.53 1016.60 1016.66 1016.70 1016.71 1016.66 1016.56 1016.44 1016.30 1016.17 1016.07 1016.02
1012.88 1012.99 1013.03 1013.04 1013.10 1013.27 1013.57 1014.02 1014.58 1015.19 1015.77 1016.25 1016.55 1016.64 1016.54 1016.27 1015.91 1015.54 1015.23 1015.03 1014.97 1015.06 1015.26 1015.52 1015.81 1016.06 1016.26 1016.41 1016.50 1016.56 1016.62 1016.69 1016.78 1016.87 1016.97 1017.03 1017.04 1016.99 1016.87 1016.71 1016.52 1016.34 1016.18 1016.07
1012.79 1012.87 1012.90 1012.93 1013.02 1013.23 1013.59 1014.08 1014.66 1015.27 1015.82 1016.24 1016.48 1016.51 1016.34 1016.02 1015.62 1015.24 1014.94 1014.78 1014.77 1014.91 1015.16 1015.47 1015.80 1016.08 1016.30 1016.46 1016.57 1016.64 1016.71 1016.80 1016.91 1017.03 1017.14 1017.23 1017.25 1017.20 1017.08 1016.90 1016.68 1016.45 1016.25 1016.08
1012.76 1012.80 1012.82 1012.86 1012.99 1013.24 1013.64 1014.16 1014.75 1015.35 1015.88 1016.26 1016.44 1016.41 1016.20 1015.85 1015.44 1015.07 1014.79 1014.66 1014.69 1014.87 1015.15 1015.49 1015.83 1016.12 1016.34 1016.49 1016.59 1016.65 1016.72 1016.81 1016.92 1017.05 1017.18 1017.28 1017.31 1017.27 1017.15 1016.96 1016.72 1016.46 1016.22 1016.02
1012.77 1012.78 1012.79 1012.85 1013.00 1013.28 1013.70 1014.24 1014.84 1015.42 1015.92 1016.26 1016.41 1016.35 1016.12 1015.76 1015.37 1015.02 1014.78 1014.68 1014.75 1014.95 1015.25 1015.60 1015.93 1016.20 1016.40 1016.53 1016.60 1016.64 1016.68 1016.75 1016.85 1016.97 1017.10 1017.20 1017.24 1017.20 1017.08 1016.88 1016.63 1016.36 1016.10 1015.86
1012.80 1012.79 1012.80 1012.86 1013.03 1013.33 1013.75 1014.29 1014.87 1015.43 1015.90 1016.22 1016.34 1016.28 1016.05 1015.73 1015.37 1015.06 1014.86 1014.80 1014.89 1015.12 1015.42 1015.76 1016.07 1016.32 1016.49 1016.58 1016.61 1016.62 1016.63 1016.67 1016.74 1016.84 1016.95 1017.03 1017.06 1017.01 1016.89 1016.68 1016.43 1016.14 1015.86 1015.61
1012.80 1012.79 1012.80 1012.87 1013.05 1013.34 1013.75 1014.26 1014.81 1015.34 1015.77 1016.06 1016.19 1016.14 1015.94 1015.66 1015.36 1015.11 1014.96 1014.94 1015.06 1015.29 1015.60 1015.92 1016.21 1016.43 1016.57 1016.64 1016.64 1016.62 1016.60 1016.60 1016.64 1016.70 1016.77 1016.82 1016.82 1016.76 1016.61 1016.40 1016.13 1015.83 1015.54 1015.26
1012.75 1012.76 1012.79 1012.86 1013.03 1013.30 1013.68 1014.14 1014.63 1015.10 1015.50 1015.77 1015.89 1015.86 1015.72 1015.50 1015.27 1015.09 1015.00 1015.02 1015.17 1015.41 1015.71 1016.02 1016.29 1016.50 1016.62 1016.68 1016.67 1016.63 1016.59 1016.57 1016.57 1016.59 1016.61 1016.61 1016.57 1016.47 1016.30 1016.06 1015.77 1015.46 1015.15 1014.85
1012.64 1012.69 1012.74 1012.83 1012.98 1013.22 1013.54 1013.92 1014.34 1014.75 1015.08 1015.32 1015.45 1015.45 1015.36 1015.21 1015.06 1014.95 1014.92 1014.99 1015.16 1015.41 1015.71 1016.01 1016.27 1016.48 1016.61 1016.67 1016.67 1016.64 1016.59 1016.55 1016.52 1016.50 1016.47 1016.42 1016.33 1016.18 1015.97 1015.70 1015.39 1015.06 1014.73 1014.41
1012.50 1012.60 1012.68 1012.78 1012.92 1013.11 1013.36 1013.66 1013.98 1014.30 1014.57 1014.77 1014.88 1014.91 1014.88 1014.80 1014.73 1014.69 1014.72 1014.84 1015.03 1015.29 1015.58 1015.88 1016.15 1016.36 1016.51 1016.60 1016.63 1016.62 1016.58 1016.53 1016.48 1016.42 1016.34 1016.24 1016.09 1015.89 1015.63 1015.33 1015.00 1014.65 1014.30 1013.97
1012.37 1012.52 1012.65 1012.76 1012.87 1013.01 1013.18 1013.37 1013.59 1013.81 1014.00 1014.15 1014.26 1014.31 1014.32 1014.32 1014.32 1014.35 1014.44 1014.60 1014.81 1015.08 1015.37 1015.66 1015.94 1016.17 1016.34 1016.46 1016.53 1016.55 1016.53 1016.49 1016.42 1016.33 1016.20 1016.04 1015.84 1015.59 1015.29 1014.96 1014.61 1014.25 1013.90 1013.55
1012.29 1012.50 1012.66 1012.78 1012.87 1012.95 1013.03 1013.12 1013.22 1013.33 1013.44 1013.54 1013.62 1013.70 1013.75 1013.82 1013.89 1014.00 1014.14 1014.33 1014.56 1014.83 1015.12 1015.41 1015.68 1015.93 1016.13 1016.28 1016.38 1016.43 1016.43 1016.40 1016.32 1016.19 1016.03 1015.82 1015.57 1015.27 1014.95 1014.59 1014.23 1013.87 1013.51 1013.17
1012.28 1012.54 1012.73 1012.85 1012.91 1012.93 1012.92 1012.90 1012.89 1012.90 1012.93 1012.97 1013.04 1013.13 1013.24 1013.36 1013.51 1013.68 1013.87 1014.10 1014.35 1014.62 1014.90 1015.18 1015.45 1015.69 1015.90 1016.07 1016.19 1016.27 1016.29 1016.25 1016.16 1016.01 1015.81 1015.56 1015.27 1014.94 1014.59 1014.22 1013.86 1013.50 1013.16 1012.83
1012.35 1012.64 1012.83 1012.94 1012.96 1012.91 1012.82 1012.71 1012.59 1012.51 1012.47 1012.48 1012.54 1012.64 1012.80 1012.99 1013.20 1013.44 1013.69 1013.95 1014.21 1014.48 1014.75 1015.01 1015.26 1015.49 1015.70 1015.87 1016.00 1016.08 1016.10 1016.06 1015.95 1015.78 1015.55 1015.27 1014.94 1014.59 1014.23 1013.86 1013.50 1013.16 1012.83 1012.51
1012.45 1012.73 1012.91 1012.99 1012.96 1012.85 1012.68 1012.48 1012.29 1012.14 1012.04 1012.03 1012.09 1012.23 1012.44 1012.69 1012.98 1013.28 1013.58 1013.87 1014.16 1014.42 1014.68 1014.92 1015.14 1015.35 1015.54 1015.70 1015.82 1015.89 1015.90 1015.85 1015.72 1015.52 1015.27 1014.96 1014.62 1014.25 1013.88 1013.52 1013.17 1012.84 1012.52 1012.23
1012.50 1012.74 1012.88 1012.91 1012.83 1012.66 1012.43 1012.16 1011.92 1011.72 1011.61 1011.59 1011.68 1011.86 1012.12 1012.45 1012.80 1013.17 1013.52 1013.85 1014.15 1014.41 1014.65 1014.87 1015.07 1015.25 1015.41 1015.55 1015.65 1015.71 1015.70 1015.63 1015.48 1015.27 1014.99 1014.67 1014.31 1013.93 1013.56 1013.20 1012.86 1012.54 1012.25 1011.96
1012.41 1012.59 1012.68 1012.64 1012.51 1012.28 1012.00 1011.70 1011.43 1011.23 1011.12 1011.12 1011.25 1011.49 1011.81 1012.20 1012.62 1013.05 1013.44 1013.81 1014.12 1014.39 1014.62 1014.82 1014.99 1015.15 1015.29 1015.40 1015.49 1015.52 1015.50 1015.41 1015.25 1015.03 1014.74 1014.40 1014.03 1013.65 1013.28 1012.92 1012.58 1012.28 1011.99 1011.72
1012.14 1012.24 1012.24 1012.15 1011.95 1011.69 1011.38 1011.08 1010.81 1010.63 1010.55 1010.60 1010.78 1011.08 1011.47 1011.92 1012.40 1012.87 1013.31 1013.70 1014.03 1014.30 1014.52 1014.71 1014.87 1015.01 1015.13 1015.23 1015.30 1015.33 1015.30 1015.20 1015.04 1014.80 1014.51 1014.16 1013.79 1013.41 1013.03 1012.67 1012.34 1012.03 1011.75 1011.49
1011.67 1011.67 1011.59 1011.43 1011.19 1010.90 1010.59 1010.31 1010.08 1009.94 1009.92 1010.04 1010.28 1010.64 1011.09 1011.59 1012.11 1012.62 1013.08 1013.48 1013.82 1014.10 1014.33 1014.51 1014.67 1014.80 1014.92 1015.02 1015.09 1015.12 1015.09 1014.99 1014.83 1014.59 1014.29 1013.94 1013.57 1013.18 1012.80 1012.44 1012.11 1011.81 1011.54 1011.29
1011.03 1010.94 1010.77 1010.55 1010.28 1009.98 1009.70 1009.45 1009.28 1009.21 1009.27 1009.46 1009.77 1010.18 1010.68 1011.22 1011.76 1012.29 1012.76 1013.17 1013.52 1013.80 1014.02 1014.21 1014.37 1014.52 1014.65 1014.76 1014.84 1014.87 1014.86 1014.77 1014.61 1014.37 1014.07 1013.73 1013.35 1012.96 1012.57 1012.21 1011.88 1011.59 1011.33 1011.10
1010.31 1010.12 1009.89 1009.62 1009.33 1009.04 1008.79 1008.60 1008.50 1008.52 1008.65 1008.91 1009.28 1009.75 1010.28 1010.83 1011.39 1011.91 1012.38 1012.79 1013.13 1013.41 1013.65 1013.84 1014.02 1014.18 1014.33 1014.46 1014.56 1014.61 1014.60 1014.52 1014.37 1014.14 1013.84 1013.49 1013.11 1012.71 1012.33 1011.97 1011.65 1011.37 1011.14 1010.94
1009.60 1009.34 1009.05 1008.74 1008.45 1008.18 1007.97 1007.84 1007.82 1007.91 1008.12 1008.45 1008.87 1009.37 1009.92 1010.48 1011.03 1011.54 1012.00 1012.39 1012.72 1013.00 1013.24 1013.45 1013.64 1013.83 1014.00 1014.15 1014.26 1014.33 1014.33 1014.26 1014.11 1013.87 1013.57 1013.22 1012.83 1012.44 1012.05 1011.71 1011.40 1011.14 1010.94 1010.78
1009.02 1008.71 1008.38 1008.04 1007.74 1007.50 1007.33 1007.26 1007.30 1007.46 1007.73 1008.11 1008.57 1009.09 1009.64 1010.19 1010.72 1011.21 1011.64 1012.02 1012.34 1012.61 1012.86 1013.08 1013.29 1013.49 1013.68 1013.84 1013.97 1014.05 1014.06 1013.98 1013.82 1013.58 1013.27 1012.91 1012.51 1012.12 1011.74 1011.41 1011.12 1010.90 1010.73 1010.62
Thickness
5777 5772 5768 5772 5774 5770 5766 5760 5753 5752 5755 5752 5743 5733 5733 5737 5736 5733 5731 5729 5726 5725 5726 5726 5724 5721 5718 5715 5712 5710 5708 5706 5704 5703 5702 5700 5701 5700 5700 5698 5695 5694 5694 5695
5770 5769 5778 5779 5775 5768 5763 5755 5751 5747 5750 5747 5737 5730 5732 5732 5732 5731 5727 5725 5723 5721 5719 5718 5717 5715 5712 5708 5705 5702 5700 5698 5697 5694 5693 5692 5692 5692 5692 5690 5687 5686 5686 5686
5768 5777 5781 5774 5769 5763 5762 5758 5754 5746 5743 5746 5737 5724 5724 5728 5729 5728 5727 5725 5723 5720 5716 5713 5711 5708 5706 5703 5699 5698 5693 5691 5689 5687 5688 5687 5685 5685 5685 5682 5681 5679 5678 5677
5774 5780 5775 5770 5766 5766 5758 5765 5759 5749 5742 5738 5737 5721 5722 5725 5722 5723 5723 5722 5721 5719 5716 5712 5708 5704 5701 5698 5695 5691 5687 5684 5681 5680 5680 5677 5675 5675 5674 5673 5673 5671 5670 5670
5771 5775 5771 5764 5766 5767 5762 5765 5758 5752 5747 5740 5737 5730 5726 5727 5720 5722 5724 5723 5722 5719 5715 5710 5706 5701 5698 5694 5690 5686 5681 5677 5674 5672 5671 5668 5668 5667 5668 5666 5665 5662 5664 5662
5776 5780 5777 5771 5771 5769 5764 5758 5752 5751 5750 5729 5733 5728 5724 5730 5727 5726 5726 5723 5721 5718 5714 5708 5704 5699 5694 5691 5686 5682 5676 5671 5668 5666 5664 5661 5659 5658 5657 5656 5656 5656 5658 5657
5766 5772 5776 5775 5763 5762 5760 5749 5737 5731 5731 5729 5733 5729 5728 5735 5735 5732 5727 5724 5721 5717 5713 5707 5701 5695 5690 5685 5681 5677 5671 5666 5664 5661 5658 5656 5653 5651 5650 5649 5649 5647 5649 5649
5758 5757 5769 5772 5766 5760 5758 5755 5736 5725 5728 5732 5730 5727 5735 5739 5737 5734 5730 5726 5720 5715 5711 5704 5699 5693 5687 5682 5677 5672 5667 5662 5659 5656 5653 5650 5647 5648 5647 5643 5640 5640 5639 5639
5763 5757 5769 5771 5773 5769 5756 5757 5760 5747 5740 5733 5735 5735 5737 5736 5732 5730 5726 5722 5717 5713 5707 5702 5696 5690 5684 5679 5673 5668 5663 5658 5654 5651 5648 5646 5643 5640 5638 5635 5633 5634 5631 5630
5774 5759 5765 5768 5771 5765 5768 5761 5753 5744 5726 5726 5730 5730 5734 5729 5729 5728 5724 5720 5715 5711 5706 5700 5694 5688 5683 5677 5671 5665 5660 5655 5651 5648 5645 5643 5639 5635 5631 5629 5626 5624 5622 5620
5778 5761 5759 5763 5758 5759 5756 5754 5752 5750 5743 5730 5724 5731 5745 5739 5735 5729 5726 5722 5716 5710 5705 5698 5693 5687 5681 5676 5670 5663 5658 5653 5648 5644 5640 5637 5634 5631 5627 5624 5621 5618 5616 5613
5774 5769 5757 5760 5767 5768 5762 5757 5752 5738 5731 5734 5733 5733 5746 5742 5738 5733 5727 5721 5716 5710 5704 5697 5691 5684 5678 5673 5667 5662 5656 5650 5646 5642 5637 5634 5630 5626 5623 5621 5617 5613 5610 5608
5770 5758 5745 5745 5750 5756 5756 5755 5753 5747 5740 5735 5730 5732 5741 5740 5736 5732 5726 5719 5713 5706 5701 5695 5687 5681 5674 5669 5663 5658 5653 5648 5643 5639 5634 5630 5626 5622 5618 5615 5612 5608 5605 5602
5772 5759 5751 5743 5750 5759 5752 5750 5750 5746 5740 5736 5735 5736 5739 5736 5732 5729 5724 5718 5712 5705 5698 5691 5684 5677 5671 5665 5660 5655 5650 5645 5640 5635 5631 5626 5622 5618 5614 5611 5607 5604 5600 5597
5768 5758 5757 5759 5761 5760 5755 5752 5749 5745 5745 5740 5740 5738 5741 5739 5735 5730 5724 5716 5709 5703 5696 5689 5682 5675 5669 5663 5657 5652 5647 5641 5636 5631 5627 5623 5619 5615 5611 5607 5603 5599 5595 5592
5763 5754 5753 5751 5756 5755 5750 5752 5751 5748 5747 5744 5742 5740 5747 5742 5736 5728 5721 5715 5707 5702 5696 5689 5682 5675 5668 5661 5655 5649 5644 5638 5633 5628 5624 5621 5616 5612 5608 5603 5599 5595 5591 5587
5761 5750 5743 5744 5751 5746 5740 5753 5752 5750 5750 5746 5739 5743 5743 5735 5730 5725 5721 5715 5708 5703 5696 5689 5681 5674 5666 5660 5653 5647 5642 5636 5631 5626 5622 5618 5613 5609 5604 5600 5595 5591 5587 5583
5754 5747 5746 5745 5737 5721 5751 5765 5761 5753 5751 5753 5748 5746 5741 5736 5732 5729 5723 5716 5709 5703 5696 5688 5682 5674 5667 5660 5653 5645 5641 5635 5630 5625 5620 5616 5610 5606 5601 5596 5592 5587 5583 5579
5758 5748 5745 5740 5735 5738 5754 5758 5756 5747 5746 5755 5749 5745 5741 5736 5729 5727 5722 5717 5709 5703 5695 5688 5681 5674 5665 5658 5651 5644 5639 5634 5629 5624 5618 5614 5608 5603 5598 5594 5589 5585 5580 5576
5750 5748 5744 5737 5726 5726 5750 5762 5764 5751 5739 5757 5751 5744 5739 5729 5723 5725 5721 5714 5708 5701 5694 5686 5680 5672 5663 5656 5649 5642 5638 5633 5627 5622 5616 5611 5606 5601 5596 5591 5587 5583 5578 5575
5740 5738 5738 5736 5731 5745 5762 5762 5754 5733 5740 5756 5753 5746 5739 5731 5728 5723 5719 5712 5705 5698 5691 5684 5677 5669 5662 5655 5647 5641 5636 5631 5626 5620 5615 5610 5605 5600 5596 5591 5586 5581 5577 5573
5745 5743 5737 5737 5730 5740 5760 5756 5748 5750 5756 5755 5751 5746 5739 5732 5726 5720 5715 5708 5702 5696 5689 5682 5674 5668 5661 5653 5646 5640 5635 5630 5624 5619 5614 5610 5605 5601 5597 5591 5586 5581 5576 5574
5749 5752 5753 5748 5750 5757 5764 5761 5763 5760 5754 5752 5749 5745 5738 5731 5724 5718 5711 5705 5699 5693 5687 5681 5674 5666 5660 5653 5646 5639 5634 5628 5622 5617 5613 5609 5605 5600 5596 5591 5587 5583 5579 5575
5750 5748 5747 5745 5757 5760 5760 5760 5758 5756 5753 5752 5749 5743 5737 5729 5723 5717 5710 5704 5697 5691 5685 5679 5672 5665 5659 5653 5646 5639 5633 5627 5621 5617 5613 5609 5605 5602 5597 5591 5588 5584 5580 5576
5747 5743 5742 5741 5751 5755 5757 5756 5755 5752 5751 5748 5745 5740 5734 5727 5721 5715 5708 5701 5695 5689 5683 5677 5669 5663 5657 5651 5645 5639 5633 5626 5620 5616 5613 5609 5606 5602 5595 5592 5587 5582 5578 5571
5745 5740 5737 5741 5748 5748 5750 5755 5754 5748 5745 5743 5738 5734 5730 5726 5719 5713 5707 5701 5694 5688 5681 5674 5668 5662 5657 5651 5644 5638 5632 5625 5618 5615 5612 5610 5607 5602 5598 5593 5590 5582 5576 5569